Location: Praha
(50.0830°N, 14.4670°E)
Time: 05:20:02
(UTC+02:00)

ISS - Pass Details

Date: 29 August 2019
Orbit: 410 x 421 km, 51.6° (Epoch: 18 August)

Event Time Altitude Azimuth Distance (km) Brightness Sun altitude
Rises 13:40:04 0° 252° (WSW) 2,361 0.3 48.9°
Enters shadow 14:17:00 -63° 127° (SE) 11,841 3.2 46.8°
Exits shadow 14:52:45 -44° 335° (NNW) 9,422 2.6 43.7°
Maximum altitude 04:51:05 13° 137° (SE) 1,302 -1.1 -12.6°
